Location: Gettysburg
(39.8310°N, 77.2310°W)
Time: 23:59:03
(UTC-04:00)

ATLAS 2AS CENTAUR R/B - Visible Passes

Search period start: 27 May 2016 00:00
Search period end: 06 June 2016 00:00
Orbit: 904 x 1308 km, 63.7° (Epoch: 01 May)

Date Brightness Start Highest point End Pass type
(mag) Time Alt. Az. Time Alt. Az. Time Alt. Az.
29 May 5.1 04:49:23 10° SE 04:53:45 17° ESE 04:58:18 10° ENE visible
31 May 4.3 05:07:44 10° S 05:14:20 37° ESE 05:21:26 10° NE visible
01 Jun 4.9 04:24:29 10° SSE 04:29:59 23° ESE 04:35:46 10° ENE visible
02 Jun 5.1 03:42:37 10° SE 03:45:46 13° E 03:49:00 10° ENE visible
03 Jun 3.8 04:43:42 10° S 04:50:42 48° ESE 04:58:16 10° NE visible
04 Jun 4.4 04:00:01 10° SSE 04:06:15 31° ESE 04:12:54 10° NE visible
05 Jun 4.9 03:17:10 10° SE 03:21:57 19° ESE 03:26:57 10° ENE visible
05 Jun 3.1 05:04:22 10° SSW 05:11:50 88° NW 05:19:57 10° NNE visible
